Weather History for Maun, Botswana

Change the Weather History Date:

Thursday, July 18, 2013

  Actual Average Record
Temperature  
Mean Temperature 62 °F -  
Max Temperature 77 °F 80 °F 86 °F (1998)
Min Temperature 48 °F 51 °F 42 °F (2012)
Degree Days  
Heating Degree Days 2    
Growing Degree Days 12 (Base 50)    
Moisture  
Dew Point 30 °F    
Average Humidity 29    
Maximum Humidity 46    
Minimum Humidity 10    
Precipitation  
Precipitation 0.00 in - - ()
Sea Level Pressure  
Sea Level Pressure 30.24 in    
Wind  
Wind Speed 8 mph ()    
Max Wind Speed 16 mph    
Max Gust Speed -    
Visibility 6.0 miles    
Events      
Averages and records for this station are not official NWS values.
T = Trace of Precipitation, MM = Missing Value Source: Averaged Metar Reports

Daily Weather History Graph

Daily Weather History Graph

Search for Another Location

Airport:

Trip Planner

Search our weather history database for the weather conditions in past years. The results will help you decide how hot, cold, wet, or windy it might be!

Date:

Astronomy

Jul. 18, 2013 Rise Set
Actual Time 7:00 AM CAT 6:04 PM CAT
Civil Twilight 6:37 AM CAT 6:28 PM CAT
Nautical Twilight 6:10 AM CAT 6:55 PM CAT
Astronomical Twilight 5:43 AM CAT 7:21 PM CAT
Moon 1:51 PM CAT (7/18) 2:16 AM CAT (7/18)
Length of Visible Light 11h 50m
Length of Day
11h 03m
Waxing Gibbous, 75% of the Moon is Illuminated
Jul 18
Waxing Gibbous
Jul 22
Full
Jul 29
Last Quarter
Aug 6
New
Aug 14
First Quarter

Hourly Weather History & Observations

Time (CAT) Temp. Dew Point Humidity Pressure Visibility Wind Dir Wind Speed Gust Speed Precip Events Conditions
12:00 AM 57.2 °F 30.2 °F 36% 30.24 in - SE 8.1 mph - N/A   Clear
1:00 AM 57.2 °F 26.6 °F 31% 30.24 in - SE 5.8 mph - N/A   Clear
2:00 AM 53 °F 27 °F 24%  in 6 mi ESE 4.6 mph - -   Partly Cloudy
2:00 AM 53.6 °F 26.6 °F 35% 30.24 in - ESE 4.6 mph - N/A   Clear
3:00 AM 51.8 °F 28.4 °F 41% 30.24 in - SSE 3.5 mph - N/A   Clear
4:00 AM 55.4 °F 24.8 °F 31% 30.24 in - SE 9.2 mph - N/A   Clear
5:00 AM 53.6 °F 24.8 °F 33% 30.24 in - ESE 11.5 mph - N/A   Clear
6:00 AM 50.0 °F 26.6 °F 40% 30.27 in - ESE 6.9 mph - N/A   Clear
7:00 AM 48.2 °F 28.4 °F 46% 30.27 in - ESE 6.9 mph - N/A   Clear
8:00 AM 50.0 °F 26.6 °F 40% 30.30 in - ESE 5.8 mph - N/A   Clear
9:00 AM 55.4 °F 30.2 °F 38% 30.33 in - East 16.1 mph - N/A   Clear
10:00 AM 62.6 °F 33.8 °F 34% 30.33 in - East 16.1 mph - N/A   Clear
11:00 AM 68.0 °F 35.6 °F 30% 30.33 in - ENE 16.1 mph - N/A   Clear
12:00 PM 71.6 °F 35.6 °F 27% 30.27 in - East 16.1 mph - N/A   Clear
1:00 PM 75.2 °F 33.8 °F 22% 30.24 in - ENE 9.2 mph - N/A   Clear
2:00 PM 76 °F 31 °F 10%  in 6 mi ESE 11.5 mph - -   Partly Cloudy
2:00 PM 75.2 °F 30.2 °F 19% 30.21 in - ESE 11.5 mph - N/A   Clear
3:00 PM 77.0 °F 30.2 °F 18% 30.18 in - ESE 5.8 mph - N/A   Clear
4:00 PM 77.0 °F 28.4 °F 17% 30.18 in - ESE 9.2 mph - N/A   Clear
5:00 PM 77.0 °F 28.4 °F 17% 30.18 in - ENE 8.1 mph - N/A   Clear
6:00 PM 73.4 °F 30.2 °F 20% 30.18 in - East 6.9 mph - N/A   Clear
7:00 PM 66.2 °F 30.2 °F 26% 30.18 in - SE 6.9 mph - N/A   Clear
8:00 PM 65 °F 30 °F 16%  in 6 mi ESE 9.2 mph - -   Partly Cloudy
8:00 PM 66.2 °F 30.2 °F 26% 30.21 in - ESE 9.2 mph - N/A   Clear
9:00 PM 62.6 °F 30.2 °F 30% 30.21 in - ESE 8.1 mph - N/A   Clear
10:00 PM 59.0 °F 30.2 °F 34% 30.24 in - SE 9.2 mph - N/A   Clear
11:00 PM 57.2 °F 30.2 °F 36% 30.24 in - SE 9.2 mph - N/A   Clear